Terminal Aerodrome Forecast
Issued by NWS

Home | Current Version | Previous Version | Text Only | Print | Product List | Glossary On
Versions: 1 2 3 4 5 6 7 8 9 10 11 12 13 14 15 16 17 18 19 20 21
000
FTUS45 KRIW 021800 AAA
TAFRKS
TAF AMD
KRKS 021839Z 0219/0318 06005KT 1/2SM SN SCT002 OVC010
      TEMPO 0219/0222 1/4SM +SN VV010
     FM022200 08007KT 3SM -SN OVC015
     FM030200 26011KT 1 1/2SM -SN SCT006 OVC012
     FM031500 26008KT 4SM -SN OVC020=

USA.gov is the U.S. government's official web portal to all federal, state and local government web resources and services.